Regional Weather Roundup
Issued by NWS Jackson, KY

Home | Current Version | Previous Version | Text Only | Print | Product List | Glossary Off
Versions: 1 2 3 4 5 6 7 8 9 10 11 12 13 14 15 16 17 18 19 20 21 22 23 24 25 26 27

000
ASUS43 KJKL 160710
RWRJKL

EAST KENTUCKY HOURLY WEATHER ROUNDUP
NATIONAL WEATHER SERVICE JACKSON KY
300 AM EDT WED AUG 16 2017

NOTE: "FAIR" INDICATES FEW OR NO CLOUDS BELOW 12,000 FEET WITH
NO SIGNIFICANT WEATHER AND/OR OBSTRUCTIONS TO VISIBILITY.

* THESE REPORTS ARE NOT UNDER NWS QUALITY CONTROL AND MAY NOT
  REPORT WEATHER SUCH AS PRECIPITATION AND FOG.

KYZ079-080-083-085-087-088-110-112-115-119-120-160800
...EASTERN KENTUCKY...

CITY           SKY/WX    TMP DP  RH WIND       PRES   REMARKS
JACKSON        CLEAR     73  71  93 CALM      30.02S
LONDON         FOG       70  69  97 CALM      30.02S VSB 1/4
SOMERSET*      CLEAR     68  68 100 CALM      30.02S
MONTICELLO*    FOG       68  68 100 N3        30.03S VSB 1
WILLIAMSBURG*  CLOUDY    68  68 100 CALM      30.02S VSB<1/4
MIDDLESBORO*   CLOUDY    71  71 100 CALM      30.03S FOG
HARLAN APT*    CLOUDY    70  68  94 CALM      30.05S
PIKE CO APT*   FOG       71  71 100 CALM      30.03S VSB 1/2
BIG SANDY APT* FOG       71  71 100 CALM      30.02S VSB 1
MOREHEAD APT*  FOG       72  70  94 CALM      30.03R VSB 1/4
$$

KYZ035-036-041-042-044-050-067-078-099-160800
...CENTRAL KENTUCKY...

CITY           SKY/WX    TMP DP  RH WIND       PRES   REMARKS
MT STERLING*     N/A     68  68 100 CALM      30.02F FOG
FLEMING/MASON* CLEAR     68  68  99 CALM      30.02S FOG
DANVILLE*      CLEAR     68  68 100 SW3       30.02S FOG
LEXINGTON      CLEAR     69  66  90 CALM      30.01S FOG
FRANKFORT      CLEAR     71  67  87 CALM      29.98F
LOUISVILLE     CLEAR     77  71  82 S3        29.96F
LEBANON*         N/A     73  72  94 S3        30.00S
GLASGOW*       CLOUDY    73  73 100 CALM      29.98F
BOWLING GREEN  MOCLDY    76  71  85 CALM      29.97F
$$

KYZ091>093-OHZ055-061-077-WVZ005-015-034-035-042-160800
...SOUTHERN OHIO/WEST VIRGINIA...

CITY           SKY/WX    TMP DP  RH WIND       PRES   REMARKS
COVINGTON      PTCLDY    70  69  97 CALM      30.00S
COLUMBUS       CLOUDY    74  68  81 CALM      29.99S
DAYTON         PTCLDY    72  68  87 N3        30.00F
WILMINGTON     CLEAR     67  67 100 CALM      30.00S FOG
HUNTINGTON     CLEAR     71  69  93 CALM      29.99S FOG
CHARLESTON     FOG       69  68  96 CALM      30.01R VSB 1
PINEVILLE*     FOG       69  68  97 MISG      30.10S VSB 1/2
BECKLEY        CLEAR     65  64  97 CALM      30.08F FOG
BLUEFIELD      FOG       65  65 100 W5        30.11S VSB 3/4
LOGAN CO APT*  FOG       70  70 100 CALM      30.03F VSB<1/4
$$

VAZ002-007-008-TNZ017-027-036-066-071-160800
...SOUTHWEST VIRGINIA/EAST TENNESSEE...

CITY           SKY/WX    TMP DP  RH WIND       PRES   REMARKS
WISE*          CLOUDY    72  72 100 CALM      30.11S
JONESVILLE*      N/A     68  68 100 CALM      30.05S
ABINGDON*      FOG       71  71 100 CALM      30.08S VSB 1/4
BRISTOL        CLOUDY    72  71  97 CALM      30.04S
MORRISTOWN*    PTSUNNY   72  72 100 CALM      30.01S
SEVIERVILLE*   SUNNY     70  68  94 CALM      30.01R
KNOXVILLE      CLEAR     74  70  87 CALM      30.00S
LAFOLLETTE*    FOG       70  70 100 CALM      30.05R VSB 3/4
OAK RIDGE      CLEAR     73  70  90 CALM      30.02S
CROSSVILLE     CLEAR     68  67  96 CALM      30.06S
NASHVILLE      CLOUDY    74  71  91 S3        29.99S
$$

...KEY TO REMARKS...
VSB - VISIBILITY IN MILES
WCI - WIND CHILL INDEX
HX  - HEAT INDEX

$$




USA.gov is the U.S. government's official web portal to all federal, state and local government web resources and services.